📊 Raw Sensor Data

Showing records 49926 to 49950 of 85,127 total

ID Distance (ft) Battery V Battery A Int Temp (°F) Int Humid (%) Ext Temp (°F) Solar V RSSI SNR Time Stamp
35214 -- 4.02 -5 48 40 48 0.00 -82 7 03/17/2025 05:45 AM
35213 -- 3.97 -5 48 40 48 0.00 -81 7 03/17/2025 05:30 AM
35212 -- 3.98 -35 48 40 48 0.10 -83 7 03/17/2025 05:16 AM
35211 -- 3.98 -5 48 40 48 0.00 -81 7 03/17/2025 04:30 AM
35210 -- 4.03 -5 48 40 49 0.00 -80 6 03/17/2025 04:15 AM
35209 -- 3.98 -5 48 40 49 0.00 -80 7 03/17/2025 04:00 AM
35208 -- 4.03 -5 48 40 49 0.10 -81 8 03/17/2025 03:45 AM
35207 -- 3.98 -5 48 40 49 0.00 -81 6 03/17/2025 03:30 AM
35206 -- 3.98 -5 48 40 49 0.00 -80 7 03/17/2025 03:15 AM
35205 -- 3.98 -5 48 40 49 0.00 -79 7 03/17/2025 03:00 AM
35204 -- 3.98 -34 48 40 49 0.00 -79 7 03/17/2025 02:45 AM
35203 -- 3.98 -5 48 40 48 0.00 -80 5 03/17/2025 02:30 AM
35202 -- 4.03 -5 48 40 49 0.00 -80 6 03/17/2025 02:16 AM
35201 -- 3.99 -5 49 40 49 0.00 -81 7 03/17/2025 02:00 AM
35200 -- 3.98 -5 49 40 49 0.10 -80 7 03/17/2025 01:45 AM
35199 -- 4.04 -5 49 41 49 0.00 -82 7 03/17/2025 01:30 AM
35198 -- 3.99 -5 50 41 50 0.00 -82 7 03/17/2025 01:15 AM
35197 15.1 3.99 -5 50 41 50 0.00 -80 6 03/17/2025 01:00 AM
35196 15.1 3.99 -5 52 41 51 0.00 -81 8 03/17/2025 12:15 AM
35195 15.1 4.04 -5 53 41 52 0.00 -81 6 03/17/2025 12:00 AM
35194 -- 3.99 -5 55 40 55 0.00 -76 8 03/16/2025 11:45 PM
35193 -- 3.99 -5 55 40 55 0.10 -78 8 03/16/2025 11:30 PM
35192 15.0 3.99 -5 55 40 56 0.10 -77 8 03/16/2025 11:15 PM
35191 15.1 3.99 -5 55 40 56 0.00 -79 7 03/16/2025 11:00 PM
35190 15.1 4.00 -5 55 40 56 0.00 -78 8 03/16/2025 10:45 PM